Location: Days
(41.3591°N, 106.7339°W)
Time: 19:59:17
(UTC+00:00)

RS-15 - Pass Details

Date: 01 July 2022
Orbit: 1881 x 2163 km, 64.8° (Epoch: 15 August)

Event Time Altitude Azimuth Distance (km) Brightness Sun altitude
Rises 03:51:19 0° 313° (NW) 5,678 12.8 -10.7°
Reaches altitude 10° 03:55:45 10° 325° (NW) 4,687 11.5 -11.3°
Maximum altitude 04:05:52 28° 21° (NNE) 3,443 9.6 -12.6°
Drops below altitude 10° 04:15:50 10° 77° (ENE) 4,626 9.7 -13.9°
Sets 04:20:08 0° 89° (E) 5,594 10.1 -14.4°
